Churchill Falls Airport

Jump to: basic info | weather | frequencies | runways | comments

Related pages: nearby airports | nearby navaids | notams | map

Basic information (top)

Codes: ZUM CZUM
Location: lon 53.561901, lat -64.106400, elev 1,442 ft / 440 m msl
Status: small_airport
Scheduled airline service: yes
Links: Wikipedia Mobile

Weather (top)

Current conditions (rec'd 2014/07/30 21:00Z):

CZUM 302100Z AUTO 28008KT 190V310 9SM FEW075 21/08 A3000 RMK SLP165 DENSITY ALT 2400FT

Airport forecast (rec'd 2014/07/30 20:39Z):

TAF CZUM 301938Z 3020/3108 26010KT P6SM SCT040 BKN070 
     FM310200 VRB03KT P6SM FEW070 
      RMK FCST BASED ON AUTO OBS. NXT FCST BY 310200Z

Frequencies (top)

Verify before use: may be inaccurate or out of date.

ATF: 123.5 MHz (ATF)
AWOS: 122.55 MHz (AWOS)
CNTR: 126.025 MHz (GANDER CNTR)
RCO: 123.25 MHz (HALIFAX RDO)

Runways (top)

13/31: 5,500 x 150 ft (1,676 x 46 m) — paved — lighted

Latest comments (top)

churchill falls airport: no phone number [read]

More... (top)

See also NOTAMs and nearby airports and navaids, or visit the Churchill Falls Airport page at the main OurAirports website..